Moab, UT

3:28 PM MST on November 11, 2019 (GMT -0700)
Canyonlands

Weather History for KCNY - May, 2019

Change the Weather History Date:

Thursday, May 23, 2019

  Actual Average Record
Temperature  
Mean Temperature 47 °F 65 °F  
Max Temperature 53 °F 81 °F 98 °F (1967)
Min Temperature 40 °F 49 °F 38 °F (1932)
Degree Days  
Heating Degree Days 18 3  
Month to date heating degree days 195 118  
Since 1 July heating degree days 5765 5543  
Cooling Degree Days 0 3  
Month to date cooling degree days 12 30  
Year to date cooling degree days 14 33  
Moisture  
Dew Point 42 °F    
Average Humidity 78    
Maximum Humidity 100    
Minimum Humidity 56    
Precipitation  
Precipitation 0.66 in 0.02 in 0.66 in (2019)
Month to date precipitation 0.94 0.46  
Year to date precipitation 5.93 3.08  
Sea Level Pressure  
Sea Level Pressure 29.79 in    
Wind  
Wind Speed 11 mph (South)    
Max Wind Speed 40 mph    
Max Gust Speed 51 mph    
Visibility 8 miles    
Events Rain , Thunderstorm    
T = Trace of Precipitation, MM = Missing Value Source: NWS Daily Summary

Daily Weather History Graph

Daily Weather History Graph

Search for Another Location

Airport or City:

Astronomy

May. 23, 2019 Rise Set
Actual Time 6:00 AM MDT 8:31 PM MDT
Civil Twilight 5:30 AM MDT 9:01 PM MDT
Nautical Twilight 4:52 AM MDT 9:39 PM MDT
Astronomical Twilight 4:10 AM MDT 10:22 PM MDT
Moon 12:16 AM MDT (5/23) 10:07 AM MDT (5/23)
Length of Visible Light 15h 31m
Length of Day
14h 30m
Waning Gibbous, 77% of the Moon is Illuminated
May 23
Waning Gibbous
May 26
Last Quarter
Jun 3
New
Jun 10
First Quarter
Jun 17
Full

Hourly Weather History & Observations

Time (MDT) Temp. Windchill Dew Point Humidity Pressure Visibility Wind Dir Wind Speed Gust Speed Precip Events Conditions
12:53 AM 48.0 °F - 44.1 °F 86% 29.70 in 10.0 mi Calm Calm - N/A   Overcast
1:53 AM 46.0 °F - 43.0 °F 89% 29.71 in 10.0 mi Calm Calm - N/A   Partly Cloudy
2:53 AM 46.9 °F - 43.0 °F 86% 29.68 in 10.0 mi ENE 3.5 mph - N/A   Overcast
3:53 AM 48.9 °F - 43.0 °F 80% 29.68 in 10.0 mi Calm Calm - N/A   Overcast
4:53 AM 48.0 °F - 43.0 °F 83% 29.68 in 10.0 mi ESE 8.1 mph - N/A   Overcast
5:53 AM 46.0 °F 41.9 °F 44.1 °F 93% 29.70 in 6.0 mi ESE 8.1 mph - 0.05 in Rain Rain
6:01 AM 45.0 °F 41.2 °F 44.1 °F 97% 29.75 in 7.0 mi SE 6.9 mph - 0.01 in Rain Light Rain
6:14 AM 45.0 °F 40.1 °F 44.1 °F 97% 29.76 in 10.0 mi SE 9.2 mph - 0.01 in Rain Light Rain
6:49 AM 44.6 °F 42.2 °F 44.6 °F 100% 29.75 in 5.0 mi ESE 4.6 mph - 0.06 in Rain Light Rain
6:53 AM 45.0 °F 41.8 °F 44.1 °F 97% 29.71 in 6.0 mi ESE 5.8 mph - 0.07 in Rain Light Rain
7:33 AM 44.1 °F 39.5 °F 44.1 °F 100% 29.76 in 4.0 mi SE 8.1 mph - 0.09 in Rain Light Rain
7:41 AM 44.1 °F 39.0 °F 44.1 °F 100% 29.77 in 4.0 mi SE 9.2 mph - 0.11 in Rain Rain
7:53 AM 44.1 °F 39.0 °F 44.1 °F 100% 29.73 in 3.0 mi SE 9.2 mph - 0.14 in Rain Rain
8:53 AM 44.1 °F 42.5 °F 42.1 °F 93% 29.73 in 2.5 mi West 3.5 mph - 0.14 in Rain Rain
9:06 AM 44.1 °F - 41.0 °F 89% 29.77 in 4.0 mi Calm Calm - 0.02 in Rain Light Rain
9:25 AM 44.1 °F - 39.9 °F 85% 29.78 in 10.0 mi Calm Calm - 0.02 in Rain Light Rain
9:38 AM 44.1 °F - 39.9 °F 85% 29.77 in 10.0 mi Calm Calm - 0.03 in Rain Light Rain
9:53 AM 44.1 °F 40.8 °F 41.0 °F 89% 29.75 in 6.0 mi SSW 5.8 mph - 0.04 in Rain Light Rain
10:53 AM 44.1 °F 37.7 °F 42.1 °F 93% 29.73 in 10.0 mi ESE 12.7 mph - 0.02 in   Overcast
11:53 AM 46.0 °F 40.6 °F 42.1 °F 86% 29.74 in 10.0 mi SE 11.5 mph - N/A   Mostly Cloudy
12:53 PM 51.1 °F - 43.0 °F 74% 29.69 in 10.0 mi SSE 9.2 mph - N/A   Clear
1:46 PM 46.9 °F - 42.1 °F 83% 29.79 in 7.0 mi West 16.1 mph 21.9 mph 0.01 in Rain , Thunderstorm Light Rain
1:53 PM 46.0 °F 35.9 °F 43.0 °F 89% 29.78 in 4.0 mi WSW 35.7 mph 47.2 mph 0.03 in Rain , Thunderstorm Thunderstorms and Rain
1:57 PM 42.1 °F 32.1 °F 39.9 °F 92% 29.82 in 1.8 mi WSW 25.3 mph 47.2 mph 0.05 in Rain , Thunderstorm Heavy Thunderstorms and Rain
2:08 PM 41.0 °F 33.9 °F 39.9 °F 96% 29.84 in 3.0 mi SW 12.7 mph 34.5 mph 0.11 in Rain , Thunderstorm Light Thunderstorms and Rain
2:31 PM 44.1 °F 42.5 °F 44.1 °F 100% 29.84 in 10.0 mi ESE 3.5 mph - 0.11 in   Partly Cloudy
2:53 PM 46.9 °F - 46.9 °F 100% 29.79 in 10.0 mi WSW 6.9 mph - 0.11 in   Scattered Clouds
3:28 PM 50.0 °F - 42.1 °F 74% 29.82 in 9.0 mi SW 36.8 mph 50.6 mph N/A Thunderstorm Squalls
3:41 PM 44.1 °F 35.2 °F 39.9 °F 85% 29.85 in 2.5 mi SW 23.0 mph 36.8 mph 0.06 in Rain , Thunderstorm Rain
3:49 PM 44.6 °F 37.2 °F 39.2 °F 81% 29.86 in 10.0 mi SSW 17.3 mph 35.7 mph 0.06 in Rain , Thunderstorm Light Rain
3:53 PM 45.0 °F 38.5 °F 41.0 °F 86% 29.82 in 10.0 mi South 13.8 mph 27.6 mph 0.06 in Thunderstorm Overcast
4:05 PM 46.0 °F 39.3 °F 39.9 °F 79% 29.85 in 10.0 mi SSW 16.1 mph 27.6 mph N/A   Overcast
4:53 PM 51.1 °F - 41.0 °F 68% 29.81 in 10.0 mi South 23.0 mph 32.2 mph N/A   Mostly Cloudy
5:53 PM 48.9 °F - 39.0 °F 69% 29.86 in 10.0 mi SSW 17.3 mph 21.9 mph N/A   Overcast
6:53 PM 51.1 °F - 37.9 °F 61% 29.86 in 10.0 mi South 11.5 mph 23.0 mph N/A   Overcast
7:53 PM 52.0 °F - 37.0 °F 57% 29.88 in 10.0 mi South 13.8 mph 23.0 mph N/A   Overcast
8:53 PM 51.1 °F - 37.0 °F 59% 29.89 in 10.0 mi South 13.8 mph - N/A   Overcast
9:53 PM 50.0 °F - 37.0 °F 61% 29.93 in 10.0 mi South 13.8 mph - N/A   Overcast
10:53 PM 50.0 °F - 37.0 °F 61% 29.95 in 10.0 mi South 11.5 mph - N/A   Overcast
11:53 PM 50.0 °F - 36.0 °F 59% 29.94 in 10.0 mi SSW 12.7 mph - N/A   Overcast